[[{"header":{"parameterUnit":"m.s-1","parameterCategory":1,"la1":30.2991,"la2":30.254,"lo1":-89.0895,"lo2":-89.0444,"dy":0.0017,"dx":0.0017,"nx":28,"ny":28,"refTime":"2024-04-01T03:00:00:Z","depth":0,"parameterNumber":2,"parameterNumberName":"U-component_of_WINDS"},"data":[0,0,0,0,0,0,0,0,0,0,0,0,0,0,0,0,0,0,0,0,0,0,0,0,0,0,0,0,0,0,0,0,0,0,0,0,0,0,0,0,0,0,0,0,0,0,0,0,0,0,0,0,0,0,0,0,0,0,0.1387,0.1387,0,0.1378,0.1378,0.1378,0.1344,0.1344,0.1343,0.1342,0.1334,0.1334,0.1335,0,0,0,0,0,0,0,0,0,0,0,0,0,0.1376,0.1377,0.1387,0.1387,0.1387,0.1378,0.1378,0.1378,0.1344,0.1344,0.1343,0.1342,0.1334,0.1334,0.1335,0,0,0,0,0,0,0,0,0,0,0,0,0,0.1376,0.1377,0.1387,0.1369,0.1367,0.1378,0.1378,0.1377,0.1345,0.1344,0.1342,0.1341,0.1333,0.1334,0.1335,0.1362,0,0,0.1337,0.1337,0,0,0,0,0,0,0,0,0.1376,0.1376,0.1372,0.137,0.1368,0.1361,0.1371,0.1372,0.1345,0.1353,0.1342,0.1341,0.1344,0.1344,0.1344,0.1362,0.1361,0.1337,0.1337,0.1338,0.1338,0,0,0,0,0,0,0,0.1376,0.1376,0.1383,0.1372,0.137,0.1362,0.136,0.1371,0.1355,0.1353,0.135,0.1349,0.1343,0.1344,0.1344,0.1361,0.1337,0.1338,0.1338,0.1338,0.1401,0.1402,0,0,0,0,0,0,0.1378,0.1376,0.1384,0.1383,0.1369,0.1363,0.1361,0.1365,0.1355,0.1352,0.135,0.1348,0.1343,0.1343,0.1344,0.1375,0.1338,0.1338,0.1339,0.1399,0.1401,0.1402,0,0,0,0,0,0,0.1378,0.1379,0.1384,0.1379,0.1379,0.1364,0.1368,0.1365,0.1366,0.1353,0.135,0.1354,0.1342,0.1342,0.1358,0.1375,0.1339,0.1339,0.1398,0.14,0.1402,0.1439,0,0,0,0,0,0,0.1378,0.1379,0.1389,0.138,0.1379,0.1398,0.1369,0.1366,0.1367,0.1364,0.1356,0.1354,0.1341,0.1357,0.1358,0.1375,0.134,0.1396,0.1399,0.1401,0.1436,0.1442,0.1447,0,0,0,0,0,0.1378,0.14,0.139,0.1391,0.1392,0.1399,0.1399,0.1384,0.1369,0.1379,0.1371,0.1354,0.1372,0.1359,0.136,0.1377,0.1395,0.1398,0.1401,0.1434,0.1441,0.1446,0,0,0,0,0,0,0.1413,0.1399,0.1387,0.1407,0.1405,0.1394,0.1406,0.1392,0.1394,0.139,0.1372,0.137,0.1388,0.1384,0.1369,0.1403,0.1381,0.1384,0.1405,0.1412,0.1417,0.1418,0.1341,0,0,0,0,0,0.1423,0.143,0.1417,0.1436,0.1435,0.1421,0.1424,0.1412,0.1409,0.1408,0.14,0.1398,0.1403,0.1407,0.1411,0.1435,0.1433,0.1447,0.1453,0.1457,0.146,0.1473,0.1479,0.1411,0.1411,0.1411,0,0,0.1444,0.1437,0.1442,0.1443,0.144,0.1448,0.142,0.143,0.1436,0.1409,0.1423,0.1418,0.1414,0.1434,0.1442,0.1431,0.1479,0.146,0.1464,0.1465,0.1477,0.1483,0.1489,0.1413,0.1413,0.1412,0,0,0.1486,0.1481,0.1497,0.1494,0.1489,0.1479,0.1483,0.1474,0.147,0.1483,0.1464,0.147,0.1479,0.1478,0.1478,0.152,0.1505,0.1522,0.1549,0.1562,0.1568,0.1572,0.1588,0.1594,0.1525,0.1525,0.1525,0,0.1513,0.1524,0.1507,0.1518,0.1519,0.1494,0.151,0.1508,0.1505,0.1507,0.1494,0.1505,0.1501,0.152,0.153,0.1531,0.1535,0.1523,0.1568,0.1573,0.1577,0.1592,0.1598,0.1527,0.1527,0.1526,0.1526,0,0.1557,0.1565,0.1579,0.1576,0.1578,0.1592,0.1577,0.1581,0.157,0.1561,0.1576,0.157,0.1572,0.1576,0.1564,0.1594,0.1587,0.1571,0.1549,0.1586,0.1599,0.1605,0.153,0.1529,0.1529,0.1528,0,0,0.1622,0.161,0.1615,0.1614,0.1607,0.1613,0.1625,0.1627,0.1632,0.1631,0.1641,0.1649,0.1635,0.1635,0.1623,0.1635,0.1669,0.1618,0.1617,0.1628,0.1702,0.1715,0.1721,0.1659,0.166,0.166,0.1703,0,0.1663,0.1684,0.1668,0.1692,0.1699,0.1676,0.1687,0.1684,0.1677,0.1682,0.1674,0.1681,0.1661,0.1661,0.1671,0.1663,0.1684,0.1659,0.1669,0.167,0.1672,0.1728,0.1741,0.1782,0.1708,0.1709,0.1709,0,0.1714,0.1715,0.1739,0.1731,0.1733,0.1743,0.1744,0.175,0.1746,0.174,0.174,0.1726,0.1738,0.1715,0.1732,0.1715,0.1718,0.1715,0.1716,0.1717,0.1692,0.1732,0.1794,0.18,0.1717,0.1717,0.1716,0,0.176,0.1767,0.1782,0.1782,0.1772,0.178,0.1777,0.1772,0.1774,0.1775,0.1777,0.1779,0.1781,0.1783,0.1769,0.1754,0.1788,0.1764,0.1784,0.1785,0.1793,0.1793,0.1858,0.1793,0.1793,0.1793,0.1793,0,0.1808,0.1824,0.1803,0.1813,0.183,0.1812,0.183,0.1824,0.182,0.1828,0.1808,0.1817,0.1798,0.1804,0.1793,0.1809,0.181,0.1806,0.1803,0.1808,0.1809,0.1811,0.1808,0.1795,0.1794,0.1794,0.1794,0,0.1862,0.1849,0.1865,0.1854,0.1852,0.1865,0.1857,0.1865,0.1856,0.1867,0.1869,0.1855,0.1862,0.1848,0.1853,0.1846,0.1869,0.1861,0.187,0.1868,0.1889,0.1888,0.1958,0.1967,0.1896,0.1897,0.1897,0,0.1894,0.1906,0.1897,0.1901,0.1899,0.1905,0.1908,0.1891,0.1894,0.1891,0.19,0.1905,0.1909,0.192,0.1911,0.1915,0.1907,0.1932,0.1908,0.1913,0.1909,0.1909,0.191,0.1937,0.1938,0.1939,0.1939,0,0.1952,0.1945,0.195,0.1952,0.1955,0.1956,0.1956,0.196,0.1942,0.1947,0.1954,0.1956,0.1961,0.1967,0.1968,0.1965,0.1949,0.1947,0.1952,0.1958,0.1963,0.1961,0.1884,0.1945,0.1945,0.1944,0.1944,0.1944,0.1997,0.2007,0.2002,0.2008,0.2006,0.2006,0.2014,0.2006,0.2011,0.2013,0.2003,0.2012,0.2008,0.2009,0.2007,0.2014,0.2003,0.201,0.2012,0.2014,0.2018,0.1961,0.2014,0.2014,0.2014,0.2014,0.2013,0,0.2055,0.2051,0.2056,0.2056,0.2061,0.2045,0.2044,0.2049,0.2057,0.2055,0.2059,0.2066,0.2072,0.2063,0.2066,0.2074,0.2067,0.2076,0.2075,0.2075,0.2027,0.2023,0.2081,0.2081,0.2081,0.2081,0.2081,0.2081,0.2086,0.2102,0.2094,0.2109,0.2105,0.2113,0.2114,0.2114,0.2112,0.2122,0.2126,0.212,0.2115,0.2119,0.2123,0.212,0.2123,0.2134,0.2129,0.2085,0.2078,0.2072,0.2068,0.2135,0.2135,0.2176,0.2177,0.2177]},{"header":{"parameterUnit":"m.s-1","parameterCategory":1,"la1":30.2991,"la2":30.254,"lo1":-89.0895,"lo2":-89.0444,"dy":0.0017,"dx":0.0017,"nx":28,"ny":28,"refTime":"2024-04-01T03:00:00:Z","depth":0,"parameterNumber":3,"parameterNumberName":"V-component_of_WINDS"},"data":[0,0,0,0,0,0,0,0,0,0,0,0,0,0,0,0,0,0,0,0,0,0,0,0,0,0,0,0,0,0,0,0,0,0,0,0,0,0,0,0,0,0,0,0,0,0,0,0,0,0,0,0,0,0,0,0,0,0,4.0928,4.0929,0,4.1036,4.1038,4.1039,4.1051,4.105,4.1048,4.1047,4.1154,4.1158,4.1162,0,0,0,0,0,0,0,0,0,0,0,0,0,4.0727,4.0731,4.0928,4.0929,4.093,4.1036,4.1038,4.1039,4.1051,4.1049,4.1048,4.1047,4.1153,4.1157,4.1162,0,0,0,0,0,0,0,0,0,0,0,0,0,4.0823,4.0732,4.0927,4.0949,4.0952,4.1036,4.1038,4.104,4.1051,4.1049,4.1048,4.1046,4.1151,4.1157,4.1163,4.1231,0,0,4.118,4.1183,0,0,0,0,0,0,0,0,4.0817,4.083,4.0945,4.0948,4.0951,4.1028,4.1006,4.1103,4.1051,4.1013,4.1047,4.1045,4.1113,4.1122,4.1146,4.1236,4.124,4.1181,4.1184,4.1187,4.1188,0,0,0,0,0,0,0,4.0811,4.0825,4.0971,4.0946,4.095,4.0952,4.0964,4.1024,4.1071,4.1017,4.1018,4.1031,4.1115,4.114,4.1148,4.1242,4.118,4.1186,4.1189,4.1191,4.1395,4.1397,0,0,0,0,0,0,4.08,4.082,4.0967,4.0974,4.0879,4.0957,4.097,4.1005,4.107,4.1079,4.1032,4.1031,4.1131,4.1142,4.1152,4.1238,4.1187,4.1192,4.1195,4.1393,4.1395,4.1397,0,0,0,0,0,0,4.0796,4.0813,4.0963,4.0897,4.0916,4.0962,4.1001,4.1008,4.1034,4.1082,4.109,4.105,4.113,4.1144,4.1212,4.1242,4.1195,4.12,4.1391,4.1394,4.1396,4.141,0,0,0,0,0,0,4.079,4.0812,4.0839,4.0898,4.092,4.1022,4.1003,4.1011,4.1044,4.1044,4.1101,4.1109,4.113,4.1203,4.1218,4.1249,4.1204,4.1388,4.1392,4.1395,4.1407,4.1413,4.1418,0,0,0,0,0,4.0783,4.0837,4.084,4.0858,4.0955,4.1023,4.1036,4.1061,4.1047,4.1074,4.1105,4.1107,4.1236,4.121,4.1226,4.126,4.1386,4.1391,4.1395,4.1404,4.1411,4.1417,0,0,0,0,0,0,4.0778,4.0845,4.0849,4.0924,4.0968,4.1025,4.1061,4.1067,4.1115,4.1113,4.114,4.1153,4.122,4.1246,4.1216,4.133,4.131,4.1317,4.1311,4.1318,4.1323,4.1316,4.1209,0,0,0,0,0,4.0786,4.0838,4.0892,4.0953,4.0975,4.1014,4.1045,4.106,4.1107,4.1125,4.1161,4.1204,4.1255,4.1288,4.1337,4.141,4.1423,4.1441,4.1446,4.1451,4.1458,4.15,4.1509,4.1412,4.1412,4.1412,0,0,4.0803,4.0845,4.0876,4.0953,4.0989,4.1041,4.103,4.1084,4.1123,4.1132,4.12,4.1228,4.1278,4.135,4.1383,4.1374,4.1487,4.1456,4.1459,4.1464,4.1506,4.1515,4.1523,4.1415,4.1414,4.1414,0,0,4.086,4.0897,4.0953,4.099,4.1045,4.1071,4.1084,4.1141,4.1161,4.1229,4.1238,4.1283,4.1369,4.1405,4.1435,4.1507,4.1511,4.1522,4.1551,4.1592,4.16,4.1607,4.1634,4.1644,4.1528,4.1528,4.1528,0,4.0873,4.0953,4.098,4.1036,4.107,4.1083,4.1139,4.1173,4.1241,4.1264,4.1253,4.1363,4.1397,4.1478,4.1496,4.1519,4.1535,4.1516,4.1597,4.1604,4.1611,4.1638,4.1648,4.153,4.1529,4.1529,4.1529,0,4.0968,4.1023,4.1061,4.1129,4.1167,4.1223,4.1257,4.1292,4.1305,4.1331,4.1401,4.1443,4.1502,4.1522,4.1533,4.1605,4.1598,4.1591,4.1572,4.1621,4.1647,4.1657,4.1531,4.1531,4.153,4.153,0,0,4.1025,4.1109,4.1122,4.1154,4.1217,4.126,4.1316,4.1375,4.1406,4.1451,4.15,4.1573,4.1568,4.1602,4.1617,4.1653,4.171,4.1643,4.1644,4.1655,4.1794,4.18,4.1811,4.1712,4.1714,4.1716,4.179,0,4.1091,4.1194,4.122,4.1307,4.136,4.1372,4.1421,4.1465,4.1491,4.1538,4.1566,4.1619,4.1608,4.1629,4.1664,4.1696,4.1738,4.169,4.1758,4.176,4.1747,4.1824,4.183,4.1898,4.18,4.1802,4.1803,0,4.1182,4.1233,4.1326,4.1384,4.1407,4.1451,4.1508,4.1553,4.1602,4.1619,4.1658,4.167,4.1728,4.1705,4.1786,4.1753,4.1781,4.1801,4.1804,4.1813,4.1786,4.1836,4.192,4.1931,4.1818,4.1817,4.1816,0,4.1217,4.1309,4.1377,4.1404,4.1472,4.1503,4.1533,4.1581,4.1615,4.1664,4.1687,4.1742,4.1772,4.1814,4.184,4.182,4.192,4.1898,4.1936,4.1935,4.1957,4.1956,4.2049,4.1973,4.1972,4.1972,4.1972,0,4.1289,4.1346,4.1395,4.1437,4.1501,4.153,4.1592,4.1622,4.1664,4.1712,4.1725,4.1769,4.1801,4.1849,4.1869,4.1935,4.1947,4.1963,4.1968,4.1963,4.1961,4.1983,4.198,4.1975,4.1974,4.1974,4.1973,0,4.134,4.1375,4.1451,4.151,4.1526,4.1571,4.1621,4.1663,4.1689,4.175,4.1765,4.1807,4.1865,4.1895,4.1966,4.198,4.2054,4.2055,4.2038,4.2041,4.2078,4.2075,4.219,4.2207,4.2117,4.2118,4.2119,0,4.1385,4.143,4.1495,4.1529,4.156,4.1614,4.165,4.1679,4.1716,4.1777,4.1811,4.1869,4.1918,4.201,4.2046,4.21,4.2104,4.2141,4.2113,4.2107,4.2107,4.2105,4.2111,4.2146,4.2147,4.2148,4.2148,0,4.1462,4.1477,4.153,4.1589,4.1632,4.168,4.1726,4.1753,4.179,4.183,4.1891,4.1929,4.2003,4.2062,4.2119,4.2148,4.2155,4.2157,4.2169,4.2165,4.2155,4.2163,4.2054,4.2155,4.2154,4.2153,4.2153,4.2153,4.1513,4.1554,4.1607,4.1665,4.1704,4.1748,4.179,4.1823,4.1875,4.1939,4.1953,4.2017,4.2065,4.2144,4.2175,4.2225,4.2218,4.2234,4.2239,4.2243,4.2246,4.2145,4.2235,4.2235,4.2235,4.2235,4.2235,0,4.1592,4.1627,4.168,4.1747,4.1793,4.1796,4.1848,4.1886,4.1944,4.1989,4.2038,4.2108,4.2165,4.2205,4.2263,4.2296,4.23,4.231,4.2309,4.2316,4.2248,4.2233,4.2306,4.2306,4.2306,4.2306,4.2306,4.2306,4.1638,4.1709,4.1731,4.1821,4.1855,4.192,4.1949,4.199,4.2027,4.2105,4.2154,4.218,4.2224,4.2286,4.2338,4.2349,4.237,4.238,4.2391,4.2328,4.232,4.2313,4.2299,4.2384,4.2384,4.2455,4.2455,4.2456]}]]